This is the latest recevied weather packets stored in our database for station/object KM6YFK-13. If no packets are shown the sender has not sent any weather packets the latest 10 day(s).
| Time | Temp. | Humidity | Pressure | Rain* | Wind** | Luminosity | Snow |
|---|---|---|---|---|---|---|---|
| 1777755507 | 21.11° C | 93% | 1009.2 hPa | 0 mm | - | 114 W/m² | - |
| 1777755209 | 21.11° C | 93% | 1009.3 hPa | 0 mm | - | 77 W/m² | - |
| 1777754908 | 21.11° C | 93% | 1009.1 hPa | 0 mm | - | 73 W/m² | - |
| 1777754608 | 21.11° C | 93% | 1009.1 hPa | 0 mm | - | 79 W/m² | - |
| 1777754049 | 20.56° C | 93% | 1009.3 hPa | 0 mm | - | 128 W/m² | - |
| 1777753708 | 20.56° C | 93% | 1009 hPa | 0 mm | - | 140 W/m² | - |
| 1777753408 | 20.56° C | 94% | 1008.9 hPa | 0 mm | - | 115 W/m² | - |
| 1777753108 | 20.56° C | 93% | 1009.2 hPa | 0 mm | - | 122 W/m² | - |
| 1777752808 | 20.56° C | 93% | 1009.7 hPa | 0.25 mm | - | 119 W/m² | - |
| 1777752507 | 20.56° C | 94% | 1009.5 hPa | 1.52 mm | - | 90 W/m² | - |
| 1777752208 | 20.56° C | 94% | 1009.7 hPa | 0.51 mm | - | 95 W/m² | - |
| 1777751907 | 20.56° C | 94% | 1009.6 hPa | 0.25 mm | - | 104 W/m² | - |
| 1777751607 | 20.56° C | 93% | 1010.1 hPa | 4.32 mm | - | 94 W/m² | - |
| 1777751307 | 20.56° C | 93% | 1010.2 hPa | 6.6 mm | - | 63 W/m² | - |
| 1777751009 | 20.56° C | 93% | 1010.2 hPa | 5.08 mm | - | 43 W/m² | - |
| 1777750707 | 20.56° C | 93% | 1010.3 hPa | 6.1 mm | - | 34 W/m² | - |
| 1777750407 | 20.56° C | 93% | 1010.8 hPa | 7.62 mm | - | 32 W/m² | - |
| 1777750107 | 20.56° C | 92% | 1010.9 hPa | 4.06 mm | - | 35 W/m² | - |
| 1777749807 | 21.11° C | 92% | 1011.2 hPa | 5.08 mm | - | 36 W/m² | - |
| 1777749508 | 21.11° C | 92% | 1010.6 hPa | 3.3 mm | - | 38 W/m² | - |
| 1777749207 | 21.11° C | 90% | 1010.4 hPa | 7.37 mm | - | 40 W/m² | - |
| 1777748907 | 21.11° C | 90% | 1010.5 hPa | 2.29 mm | - | 42 W/m² | - |
| 1777748607 | 21.11° C | 90% | 1010.3 hPa | 3.56 mm | - | 46 W/m² | - |
| 1777748308 | 21.11° C | 90% | 1010.4 hPa | 5.84 mm | - | 55 W/m² | - |
| 1777748008 | 21.11° C | 89% | 1010.3 hPa | 2.79 mm | - | 78 W/m² | - |
* Rain latest hour (hover to see other rain measurements)
** Current wind speed in m/s (hover to see current wind gust speed)